Weather History for KBMQ - October, 2014

Change the Weather History Date:

Friday, October 24, 2014

  Actual Average Record
Temperature  
Mean Temperature 70 °F -  
Max Temperature 84 °F 73 °F 88 °F (2001)
Min Temperature 59 °F 55 °F 39 °F (2005)
Cooling Degree Days 6    
Growing Degree Days 20 (Base 50)    
Moisture  
Dew Point 57 °F    
Average Humidity 63    
Maximum Humidity 83    
Minimum Humidity 41    
Precipitation  
Precipitation 0.00 in - - ()
Sea Level Pressure  
Sea Level Pressure 30.12 in    
Wind  
Wind Speed 1 mph (South)    
Max Wind Speed 8 mph    
Max Gust Speed -    
Visibility 10 miles    
Events      
Averages and records for this station are not official NWS values.
T = Trace of Precipitation, MM = Missing Value Source: NWS Daily Summary

Daily Weather History Graph

Daily Weather History Graph

Search for Another Location

Airport or City:

Trip Planner

Search our weather history database for the weather conditions in past years. The results will help you decide how hot, cold, wet, or windy it might be!

Date:

Astronomy

Oct. 24, 2014 Rise Set
Actual Time 7:41 AM CDT 6:52 PM CDT
Civil Twilight 7:17 AM CDT 7:16 PM CDT
Nautical Twilight 6:48 AM CDT 7:44 PM CDT
Astronomical Twilight 6:20 AM CDT 8:12 PM CDT
Moon 8:20 AM CDT (10/24) 7:36 PM CDT (10/24)
Length of Visible Light 11h 59m
Length of Day
11h 10m
New Moon, 1% of the Moon is Illuminated
Oct 24
New Moon
Oct 30
First Quarter
Nov 6
Full
Nov 14
Last Quarter
Nov 22
New

Hourly Weather History & Observations

Time (CDT) Temp. Heat Index Dew Point Humidity Pressure Visibility Wind Dir Wind Speed Gust Speed Precip Events Conditions
12:53 AM 64.9 °F - 55.9 °F 73% 30.12 in 10.0 mi Calm Calm - N/A   Scattered Clouds
1:53 AM 64.0 °F - 55.0 °F 73% 30.12 in 10.0 mi Calm Calm - N/A   Clear
2:53 AM 63.0 °F - 55.0 °F 75% 30.11 in 10.0 mi Calm Calm - N/A   Clear
3:53 AM 62.1 °F - 55.0 °F 78% 30.11 in 10.0 mi Calm Calm - N/A   Clear
4:53 AM 61.0 °F - 55.0 °F 81% 30.11 in 10.0 mi Calm Calm - N/A   Clear
5:53 AM 61.0 °F - 55.0 °F 81% 30.12 in 10.0 mi Calm Calm - N/A   Clear
6:53 AM 60.1 °F - 54.0 °F 80% 30.13 in 10.0 mi Calm Calm - N/A   Clear
7:53 AM 59.0 °F - 54.0 °F 83% 30.14 in 7.0 mi Calm Calm - N/A   Clear
8:53 AM 64.0 °F - 55.9 °F 75% 30.16 in 8.0 mi Calm Calm - N/A   Clear
9:53 AM 68.0 °F - 57.0 °F 68% 30.18 in 10.0 mi Calm Calm - N/A   Clear
10:53 AM 73.9 °F - 57.0 °F 55% 30.17 in 10.0 mi SSW 5.8 mph - N/A   Clear
11:53 AM 77.0 °F - 57.9 °F 52% 30.17 in 10.0 mi Variable 4.6 mph - N/A   Clear
12:53 PM 80.1 °F 80.7 °F 59.0 °F 48% 30.15 in 10.0 mi SW 8.1 mph - N/A   Clear
1:53 PM 82.0 °F 82.1 °F 59.0 °F 45% 30.12 in 10.0 mi Calm Calm - N/A   Partly Cloudy
2:53 PM 81.0 °F 81.0 °F 57.0 °F 44% 30.09 in 10.0 mi Variable 4.6 mph - N/A   Partly Cloudy
3:53 PM 82.9 °F 82.6 °F 57.9 °F 42% 30.08 in 10.0 mi SSE 5.8 mph - N/A   Partly Cloudy
4:53 PM 82.9 °F 82.4 °F 57.0 °F 41% 30.08 in 10.0 mi SW 5.8 mph - N/A   Clear
5:53 PM 82.9 °F 82.4 °F 57.0 °F 41% 30.08 in 10.0 mi SE 5.8 mph - N/A   Clear
6:53 PM 79.0 °F - 57.9 °F 48% 30.08 in 10.0 mi SSE 3.5 mph - N/A   Clear
7:53 PM 75.0 °F - 59.0 °F 57% 30.10 in 10.0 mi Calm Calm - N/A   Clear
8:53 PM 72.0 °F - 57.9 °F 61% 30.11 in 10.0 mi Calm Calm - N/A   Clear
9:53 PM 69.1 °F - 57.9 °F 68% 30.13 in 10.0 mi Calm Calm - N/A   Clear
10:53 PM 69.1 °F - 57.9 °F 68% 30.14 in 10.0 mi Calm Calm - N/A   Clear
11:53 PM 66.9 °F - 57.9 °F 73% 30.14 in 10.0 mi Calm Calm - N/A   Clear